TimePST,TemperatureF,Dew PointF,Humidity,Sea Level PressureIn,VisibilityMPH,Wind Direction,Wind SpeedMPH,Gust SpeedMPH,PrecipitationIn,Events,Conditions,WindDirDegrees,DateUTC
12:53 AM,44.1,10.0,25,30.22,10.0,NNE,8.1,-,N/A,,Clear,20,2013-01-14 08:53:00
1:53 AM,35.1,21.9,59,30.23,10.0,North,10.4,-,N/A,,Clear,360,2013-01-14 09:53:00
2:53 AM,32.0,19.9,61,30.24,10.0,Variable,4.6,-,N/A,,Clear,0,2013-01-14 10:53:00
3:53 AM,30.9,24.1,76,30.24,10.0,WNW,10.4,-,N/A,,Clear,300,2013-01-14 11:53:00
4:53 AM,33.1,23.0,66,30.26,10.0,SSE,5.8,-,N/A,,Clear,150,2013-01-14 12:53:00
5:53 AM,32.0,23.0,69,30.28,10.0,WNW,3.5,-,N/A,,Clear,300,2013-01-14 13:53:00
6:53 AM,28.9,23.0,78,30.32,10.0,Calm,Calm,-,N/A,,Clear,0,2013-01-14 14:53:00
7:53 AM,27.0,23.0,85,30.35,10.0,Calm,Calm,-,N/A,,Clear,0,2013-01-14 15:53:00
8:53 AM,33.1,27.0,78,30.37,10.0,Calm,Calm,-,N/A,,Clear,0,2013-01-14 16:53:00
10:53 AM,43.0,24.1,47,30.38,10.0,Calm,Calm,-,N/A,,Clear,0,2013-01-14 18:53:00
11:53 AM,46.9,23.0,39,30.35,10.0,Calm,Calm,-,N/A,,Clear,0,2013-01-14 19:53:00
12:53 PM,51.1,23.0,33,30.32,10.0,Calm,Calm,-,N/A,,Clear,0,2013-01-14 20:53:00
1:53 PM,54.0,23.0,30,30.33,10.0,Calm,Calm,-,N/A,,Clear,0,2013-01-14 21:53:00
2:53 PM,55.0,23.0,29,30.33,10.0,Calm,Calm,-,N/A,,Clear,0,2013-01-14 22:53:00
3:53 PM,55.0,24.1,30,30.34,10.0,SSE,3.5,-,N/A,,Clear,150,2013-01-14 23:53:00
4:53 PM,53.1,26.1,35,30.34,10.0,Calm,Calm,-,N/A,,Clear,0,2013-01-15 00:53:00
5:53 PM,46.9,32.0,56,30.34,10.0,WSW,4.6,-,N/A,,Clear,240,2013-01-15 01:53:00
6:53 PM,45.0,32.0,60,30.34,10.0,Calm,Calm,-,N/A,,Clear,0,2013-01-15 02:53:00
7:53 PM,39.9,30.9,70,30.35,10.0,South,3.5,-,N/A,,Clear,180,2013-01-15 03:53:00
8:53 PM,39.0,32.0,76,30.36,9.0,Calm,Calm,-,N/A,,Clear,0,2013-01-15 04:53:00
9:53 PM,36.0,30.9,82,30.35,8.0,North,3.5,-,N/A,,Clear,10,2013-01-15 05:53:00
10:53 PM,34.0,30.0,85,30.36,9.0,West,3.5,-,N/A,,Clear,280,2013-01-15 06:53:00
11:53 PM,33.1,30.0,89,30.38,9.0,Calm,Calm,-,N/A,,Clear,0,2013-01-15 07:53:00